Погода в Хиве

Узбекистан     41°23′03″N   60°21′42″E
темп.,
°C
ветер,
м/с
пор.,
м/с
влажн.,
%
обл.,
%
осадки,
мм/ч
давл.,
гПа
погр.,
м
31 июля, сб
сб3123:00+29св461774 0.0 1011109
02:00+26св4619100 0.0 101199
05:00+25в3519100 0.0 101082
08:00+27св461379 0.0 1012229
11:00+33ссв6985 0.0 10112454
14:00+36св6772 0.0 10102605
17:00+36ссв6780 0.0 10082908
20:00+33с47100 0.0 1008124
1 августа, вс
вс123:00+28с612140 0.0 1009275
02:00+26ссв511170 0.0 1009214
05:00+25ссв48200 0.0 1008149
08:00+29ссв58160 0.0 1010274
11:00+36ссв78100 0.0 10092711
14:00+38св7790 0.0 10073285
17:00+39св9880 0.0 10063542
20:00+35ссв610100 0.0 1006259
2 августа, пн
пн223:00+31с713150 0.0 1007292
02:00+29ссв512190 0.0 1007234
05:00+27ссв510230 0.0 1007168
08:00+31св611190 0.0 1008322
11:00+38св89120 0.0 10083505
14:00+40св89110 0.0 10064340
17:00+41ссв78106 0.0 10054721
20:00+38ссв6101272 0.0 1005227
3 августа, вт
вт323:00+34ссв915195 0.0 1007425
02:00+31ссв412190 0.0 1007303
05:00+30ссв49225 0.0 1007145
08:00+33всв59190 0.0 1009273
11:00+39св69140 0.0 10093696
14:00+41ссв77103 0.0 10074669
17:00+42ссв771015 0.0 10064737
20:00+38с1114132 0.0 1007832
4 августа, ср
ср423:00+35св9151724 0.0 1008514
02:00+31ссв411225 0.0 1008236
05:00+29ссв45245 0.0 100981
08:00+32с34210 0.0 1009206
11:00+37ссв33141 0.0 10091566
14:00+40св5510100 0.0 10073862
17:00+40с6610100 0.0 10064088
20:00+37с61013100 0.0 1007384